Weather History for Richmond Hanover County, VA

Change the Weather History Date:

Saturday, December 14, 2013

  Actual Average Record
Temperature  
Mean Temperature 38 °F -  
Max Temperature 44 °F 49 °F 72 °F (2001)
Min Temperature 32 °F 28 °F 8 °F (1960)
Degree Days  
Heating Degree Days 27    
Moisture  
Dew Point 36 °F    
Average Humidity 90    
Maximum Humidity 100    
Minimum Humidity 58    
Precipitation  
Precipitation 0.85 in - - ()
Sea Level Pressure  
Sea Level Pressure 30.05 in    
Wind  
Wind Speed 3 mph (North)    
Max Wind Speed 12 mph    
Max Gust Speed -    
Visibility 6 miles    
Events Rain    
Averages and records for this station are not official NWS values.
T = Trace of Precipitation, MM = Missing Value Source: NWS Daily Summary

Daily Weather History Graph

Daily Weather History Graph

Search for Another Location

Airport:

Trip Planner

Search our weather history database for the weather conditions in past years. The results will help you decide how hot, cold, wet, or windy it might be!

Date:

Astronomy

Dec. 14, 2013 Rise Set
Actual Time 7:17 AM EST 4:51 PM EST
Civil Twilight 6:47 AM EST 5:21 PM EST
Nautical Twilight 6:14 AM EST 5:54 PM EST
Astronomical Twilight 5:43 AM EST 6:26 PM EST
Moon 3:10 PM EST (12/14) 4:37 AM EST (12/14)
Length of Visible Light 10h 33m
Length of Day
9h 34m
Waxing Gibbous, 93% of the Moon is Illuminated
Dec 14
Waxing Gibbous
Dec 17
Full
Dec 25
Last Quarter
Jan 1
New
Jan 7
First Quarter

Hourly Weather History & Observations

Time (EST) Temp. Windchill Dew Point Humidity Pressure Visibility Wind Dir Wind Speed Gust Speed Precip Events Conditions
12:54 AM 32.0 °F - 27.0 °F 82% 30.31 in 10.0 mi Calm Calm - N/A   Clear
1:54 AM 32.0 °F - 28.0 °F 85% 30.31 in 10.0 mi Calm Calm - N/A   Clear
2:54 AM 33.1 °F - 28.0 °F 82% 30.32 in 10.0 mi Calm Calm - N/A   Clear
3:54 AM 33.1 °F - 30.0 °F 89% 30.31 in 10.0 mi Calm Calm - N/A   Clear
4:54 AM 35.1 °F - 30.0 °F 82% 30.31 in 10.0 mi Calm Calm - N/A   Overcast
5:54 AM 36.0 °F - 28.9 °F 76% 30.30 in 10.0 mi Calm Calm - N/A   Overcast
6:54 AM 36.0 °F - 28.0 °F 73% 30.31 in 10.0 mi Calm Calm - N/A   Scattered Clouds
7:54 AM 36.0 °F - 30.9 °F 82% 30.31 in 10.0 mi Calm Calm - N/A   Overcast
8:54 AM 39.0 °F 36.8 °F 30.0 °F 70% 30.29 in 10.0 mi NE 3.5 mph - N/A   Partly Cloudy
9:54 AM 39.9 °F - 30.0 °F 68% 30.30 in 10.0 mi Calm Calm - N/A   Mostly Cloudy
10:54 AM 42.1 °F 40.2 °F 30.9 °F 65% 30.27 in 10.0 mi East 3.5 mph - N/A   Scattered Clouds
11:54 AM 44.1 °F 40.8 °F 30.0 °F 58% 30.24 in 10.0 mi WNW 5.8 mph - N/A   Overcast
12:54 PM 42.1 °F 40.2 °F 36.0 °F 79% 30.19 in 6.0 mi NNE 3.5 mph - 0.00 in Rain Light Rain
1:54 PM 39.9 °F 37.8 °F 36.0 °F 86% 30.15 in 6.0 mi NE 3.5 mph - 0.01 in Rain Light Rain
2:47 PM 39.9 °F 37.8 °F 37.9 °F 93% 30.10 in 2.5 mi Variable 3.5 mph - 0.08 in Rain Rain
2:54 PM 39.9 °F 37.8 °F 37.9 °F 93% 30.09 in 2.0 mi NNE 3.5 mph - 0.09 in Rain Rain
3:24 PM 39.9 °F 37.8 °F 37.0 °F 89% 30.06 in 3.0 mi ENE 3.5 mph - 0.06 in Rain Rain
3:31 PM 39.9 °F - 37.9 °F 93% 30.06 in 3.0 mi Calm Calm - 0.07 in Rain Rain
3:39 PM 39.9 °F 37.8 °F 37.9 °F 93% 30.06 in 2.5 mi North 3.5 mph - 0.09 in Rain Rain
3:51 PM 39.2 °F 34.2 °F 37.4 °F 93% 30.06 in 1.5 mi NW 6.9 mph - 0.13 in Rain Heavy Rain
3:54 PM 39.9 °F 35.1 °F 37.9 °F 93% 30.07 in 1.5 mi NW 6.9 mph - 0.16 in Rain Rain
4:06 PM 39.9 °F 36.7 °F 39.0 °F 97% 30.07 in 1.5 mi NW 4.6 mph - 0.05 in Rain Heavy Rain
4:23 PM 39.0 °F 35.7 °F 39.0 °F 100% 30.03 in 2.0 mi NNE 4.6 mph - 0.07 in Rain Rain
4:32 PM 39.0 °F 36.8 °F 39.0 °F 100% 30.02 in 2.5 mi Variable 3.5 mph - 0.10 in Rain Rain
4:37 PM 39.0 °F 34.8 °F 39.0 °F 100% 30.02 in 3.0 mi ENE 5.8 mph - 0.13 in Rain Rain
4:54 PM 39.9 °F 37.8 °F 39.0 °F 97% 30.02 in 3.0 mi Variable 3.5 mph - 0.18 in Rain Rain
5:04 PM 39.9 °F 36.7 °F 39.0 °F 97% 30.02 in 3.0 mi NE 4.6 mph - 0.03 in Rain Rain
5:18 PM 39.9 °F 37.8 °F 39.0 °F 97% 30.00 in 3.0 mi North 3.5 mph - 0.06 in Rain Rain
5:25 PM 39.9 °F 36.7 °F 39.0 °F 97% 30.00 in 2.5 mi ENE 4.6 mph - 0.10 in Rain Heavy Rain
5:29 PM 39.9 °F 34.5 °F 39.0 °F 97% 29.98 in 3.0 mi ENE 8.1 mph - 0.11 in Rain Rain
5:37 PM 39.9 °F - 39.0 °F 97% 29.99 in 3.0 mi Calm Calm - 0.13 in Rain Rain
5:45 PM 39.9 °F 37.8 °F 39.9 °F 100% 29.99 in 3.0 mi ENE 3.5 mph - 0.16 in Rain Rain
5:54 PM 39.9 °F 36.7 °F 39.0 °F 97% 29.97 in 3.0 mi ENE 4.6 mph - 0.19 in Rain Rain
6:54 PM 41.0 °F 35.8 °F 39.9 °F 96% 29.88 in 7.0 mi ENE 8.1 mph - 0.04 in Rain Light Rain
7:54 PM 43.0 °F 41.3 °F 43.0 °F 100% 29.83 in 4.0 mi Variable 3.5 mph - 0.10 in Rain Light Rain
8:38 PM 43.0 °F 38.2 °F 42.1 °F 97% 29.83 in 6.0 mi WNW 8.1 mph - 0.07 in Rain Light Rain
8:45 PM 42.1 °F 35.7 °F 41.0 °F 96% 29.83 in 5.0 mi WNW 11.5 mph - 0.07 in Rain Light Rain
8:54 PM 39.9 °F 33.9 °F 39.0 °F 97% 29.83 in 6.0 mi WNW 9.2 mph - 0.08 in   Overcast
9:54 PM 39.0 °F 33.4 °F 37.9 °F 96% 29.79 in 8.0 mi NW 8.1 mph - N/A   Overcast
10:51 PM 37.4 °F 32.8 °F 37.4 °F 100% 29.79 in 7.0 mi WNW 5.8 mph - N/A   Overcast
10:54 PM 37.9 °F 31.5 °F 37.0 °F 97% 29.79 in 7.0 mi WNW 9.2 mph - N/A   Overcast
11:22 PM 37.0 °F 31.6 °F 36.0 °F 96% 29.76 in 8.0 mi NW 6.9 mph - N/A   Overcast
11:36 PM 37.0 °F 33.3 °F 36.0 °F 96% 29.75 in 7.0 mi Variable 4.6 mph - N/A   Overcast
11:47 PM 37.0 °F 32.4 °F 36.0 °F 96% 29.77 in 8.0 mi West 5.8 mph - N/A   Overcast
11:54 PM 37.0 °F 32.4 °F 36.0 °F 96% 29.78 in 8.0 mi West 5.8 mph - N/A   Overcast